Simultaneous Nadir Overpasses (SNOs) Predictions

Prediction of SNOs between GOES-18 and NOAA-21 Satellite Orbit:

Table of predicted SNOs for the next 14.0 days since TLE Epoch: 6/22/2024
Index Date Time (GOES-18) GOES-18 Lat,Lon NOAA-21 Lat,Lon Distance(km) Time Diff (sec)
1 06/22/2024 22:40:05 0.01,-137.00 -0.46,-139.12 241.62 80
2 06/23/2024 22:24:02 0.01,-136.99 0.55,-134.59 273.64 80
3 06/25/2024 10:45:51 -0.02,-136.98 0.62,-139.86 327.90 80
4 06/26/2024 10:24:28 -0.02,-136.97 -0.39,-135.33 187.18 80
5 06/27/2024 22:46:26 0.02,-136.95 -0.80,-140.64 420.25 80
6 06/28/2024 22:30:22 0.02,-136.94 0.22,-136.11 94.71 80
7 07/01/2024 10:30:47 -0.02,-136.91 -0.01,-136.84 7.50 80
8 07/03/2024 22:34:02 0.03,-136.85 -0.14,-137.62 87.87 80
9 07/04/2024 22:17:59 0.03,-136.83 0.88,-133.10 426.03 80
